Location: Domicella
(40.8833°N, 14.5833°E)
Time: 11:35:31
(UTC+00:00)

Meteor 1-26 Rocket - Pass Details

Date: 15 May 2026
Orbit: 806 x 926 km, 81.3° (Epoch: 9 June)

Event Time Altitude Azimuth Distance (km) Brightness Sun altitude
Exits shadow 21:09:42 67° 133° (SE) 907 4.0 -25.0°
Maximum altitude 21:10:10 71° 97° (E) 887 4.1 -25.1°
Drops below altitude 10° 21:15:48 10° 14° (NNE) 2,502 7.3 -25.6°
Sets 21:18:17 0° 12° (NNE) 3,462 8.1 -25.8°
